Time,TemperatureF,DewpointF,PressureIn,WindDirection,WindDirectionDegrees,WindSpeedMPH,WindSpeedGustMPH,Humidity,HourlyPrecipIn,Conditions,Clouds,dailyrainin,SoftwareType,DateUTC
2013-11-06 00:06:00,45.9,44.5,30.08,NE,45,0.0,-999.0,95,-99.99,,,0.00,Acu-Link.com,2013-11-06 05:06:00,
2013-11-06 00:21:00,45.9,44.5,30.08,ENE,67,0.0,-999.0,95,-99.99,,,0.00,Acu-Link.com,2013-11-06 05:21:00,
2013-11-06 00:36:00,46.0,43.8,30.08,ENE,67,1.7,-999.0,92,-99.99,,,0.00,Acu-Link.com,2013-11-06 05:36:00,
2013-11-06 00:52:00,46.0,44.4,30.07,East,90,2.7,-999.0,94,-99.99,,,0.00,Acu-Link.com,2013-11-06 05:52:00,
2013-11-06 01:07:00,45.5,44.4,30.07,East,90,1.7,-999.0,96,-99.99,,,0.00,Acu-Link.com,2013-11-06 06:07:00,
2013-11-06 01:22:00,45.5,44.4,30.07,ENE,67,2.2,-999.0,96,-99.99,,,0.00,Acu-Link.com,2013-11-06 06:22:00,
2013-11-06 01:37:00,45.3,44.5,30.06,NE,45,0.0,-999.0,97,-99.99,,,0.00,Acu-Link.com,2013-11-06 06:37:00,
2013-11-06 01:53:00,45.1,44.6,30.06,East,90,2.2,-999.0,98,-99.99,,,0.00,Acu-Link.com,2013-11-06 06:53:00,
2013-11-06 02:08:00,45.1,44.6,30.05,ENE,67,1.1,-999.0,98,-99.99,,,0.00,Acu-Link.com,2013-11-06 07:08:00,
2013-11-06 02:23:00,45.1,44.8,30.05,East,90,2.2,-999.0,99,-99.99,,,0.00,Acu-Link.com,2013-11-06 07:23:00,
2013-11-06 02:38:00,45.1,44.8,30.04,SSE,157,0.0,-999.0,99,-99.99,,,0.00,Acu-Link.com,2013-11-06 07:38:00,
2013-11-06 02:54:00,45.3,45.0,30.04,SSE,157,0.0,-999.0,99,-99.99,,,0.00,Acu-Link.com,2013-11-06 07:54:00,
2013-11-06 03:09:00,45.5,45.2,30.04,SSW,202,1.7,-999.0,99,-99.99,,,0.00,Acu-Link.com,2013-11-06 08:09:00,
2013-11-06 03:24:00,45.5,45.2,30.04,East,90,0.0,-999.0,99,-99.99,,,0.00,Acu-Link.com,2013-11-06 08:24:00,
2013-11-06 03:39:00,45.7,45.4,30.04,ESE,112,2.7,-999.0,99,-99.99,,,0.00,Acu-Link.com,2013-11-06 08:39:00,
2013-11-06 03:54:00,45.9,45.6,30.03,NNE,22,1.1,-999.0,99,-99.99,,,0.00,Acu-Link.com,2013-11-06 08:54:00,
2013-11-06 04:11:00,45.9,45.6,30.02,ESE,112,2.7,-999.0,99,-99.99,,,0.00,Acu-Link.com,2013-11-06 09:11:00,
2013-11-06 04:26:00,46.0,45.7,30.02,NNE,22,2.2,-999.0,99,-99.99,,,0.00,Acu-Link.com,2013-11-06 09:26:00,
2013-11-06 04:41:00,46.0,45.7,30.01,East,90,2.7,-999.0,99,-99.99,,,0.00,Acu-Link.com,2013-11-06 09:41:00,
2013-11-06 04:56:00,46.4,46.1,30.01,ESE,112,2.7,-999.0,99,-99.99,,,0.00,Acu-Link.com,2013-11-06 09:56:00,
2013-11-06 05:11:00,46.6,46.3,30.01,ESE,112,2.2,-999.0,99,-99.99,,,0.00,Acu-Link.com,2013-11-06 10:11:00,
2013-11-06 05:26:00,46.8,46.5,30.02,East,90,1.7,-999.0,99,-99.99,,,0.00,Acu-Link.com,2013-11-06 10:26:00,
2013-11-06 05:41:00,46.9,46.6,30.02,SE,135,2.2,-999.0,99,-99.99,,,0.00,Acu-Link.com,2013-11-06 10:41:00,
2013-11-06 05:57:00,47.1,46.8,30.01,East,90,1.7,-999.0,99,-99.99,,,0.00,Acu-Link.com,2013-11-06 10:57:00,
2013-11-06 06:12:00,47.3,47.0,30.01,East,90,0.0,-999.0,99,-99.99,,,0.00,Acu-Link.com,2013-11-06 11:12:00,
2013-11-06 06:27:00,47.3,47.0,30.01,ENE,67,1.1,-999.0,99,-99.99,,,0.00,Acu-Link.com,2013-11-06 11:27:00,
2013-11-06 06:42:00,47.3,47.0,30.02,SSW,202,0.0,-999.0,99,-99.99,,,0.00,Acu-Link.com,2013-11-06 11:42:00,
2013-11-06 06:57:00,47.5,47.2,30.01,WNW,292,0.0,-999.0,99,-99.99,,,0.00,Acu-Link.com,2013-11-06 11:57:00,
2013-11-06 07:12:00,47.5,47.2,30.02,East,90,0.0,-999.0,99,-99.99,,,0.00,Acu-Link.com,2013-11-06 12:12:00,
2013-11-06 07:28:00,47.5,47.2,30.02,WNW,292,0.0,-999.0,99,-99.99,,,0.00,Acu-Link.com,2013-11-06 12:28:00,
2013-11-06 07:43:00,47.7,47.4,30.02,NE,45,0.0,-999.0,99,-99.99,,,0.00,Acu-Link.com,2013-11-06 12:43:00,
2013-11-06 07:58:00,48.0,47.7,30.02,NE,45,0.0,-999.0,99,-99.99,,,0.00,Acu-Link.com,2013-11-06 12:58:00,
2013-11-06 08:13:00,48.4,48.1,30.02,West,270,0.0,-999.0,99,-99.99,,,0.00,Acu-Link.com,2013-11-06 13:13:00,
2013-11-06 08:28:00,48.9,48.6,30.03,East,90,0.0,-999.0,99,-99.99,,,0.00,Acu-Link.com,2013-11-06 13:28:00,
2013-11-06 08:43:00,49.8,49.5,30.03,ESE,112,2.2,-999.0,99,-99.99,,,0.01,Acu-Link.com,2013-11-06 13:43:00,
2013-11-06 08:58:00,50.4,50.1,30.03,ESE,112,0.0,-999.0,99,-99.99,,,0.01,Acu-Link.com,2013-11-06 13:58:00,
2013-11-06 09:14:00,50.9,50.6,30.03,ESE,112,0.0,-999.0,99,-99.99,,,0.01,Acu-Link.com,2013-11-06 14:14:00,
2013-11-06 09:29:00,51.6,51.1,30.03,NNE,22,0.0,-999.0,98,-99.99,,,0.01,Acu-Link.com,2013-11-06 14:29:00,
2013-11-06 09:44:00,52.5,51.1,30.03,ENE,67,1.7,-999.0,95,-99.99,,,0.01,Acu-Link.com,2013-11-06 14:44:00,
2013-11-06 09:59:00,52.7,50.7,30.03,East,90,1.1,-999.0,93,-99.99,,,0.01,Acu-Link.com,2013-11-06 14:59:00,
2013-11-06 10:14:00,53.2,50.6,30.02,East,90,2.2,-999.0,91,-99.99,,,0.01,Acu-Link.com,2013-11-06 15:14:00,
2013-11-06 10:30:00,54.0,51.1,30.02,South,180,0.0,-999.0,90,-99.99,,,0.01,Acu-Link.com,2013-11-06 15:30:00,
2013-11-06 10:45:00,54.7,51.2,30.02,East,90,2.7,-999.0,88,-99.99,,,0.01,Acu-Link.com,2013-11-06 15:45:00,
2013-11-06 11:00:00,55.6,51.2,30.02,ENE,67,1.7,-999.0,85,-99.99,,,0.01,Acu-Link.com,2013-11-06 16:00:00,
2013-11-06 11:15:00,56.8,51.4,30.01,East,90,0.0,-999.0,82,-99.99,,,0.01,Acu-Link.com,2013-11-06 16:15:00,
2013-11-06 11:30:00,57.7,50.9,30.01,NE,45,2.2,-999.0,78,-99.99,,,0.01,Acu-Link.com,2013-11-06 16:30:00,
2013-11-06 11:45:00,58.1,51.3,30.00,ENE,67,1.7,-999.0,78,-99.99,,,0.01,Acu-Link.com,2013-11-06 16:45:00,
2013-11-06 12:00:00,59.7,50.7,29.99,SSW,202,1.1,-999.0,72,-99.99,,,0.01,Acu-Link.com,2013-11-06 17:00:00,
2013-11-06 12:15:00,60.3,50.9,29.98,SSW,202,1.1,-999.0,71,-99.99,,,0.01,Acu-Link.com,2013-11-06 17:15:00,
2013-11-06 12:31:00,60.3,52.0,29.97,ENE,67,1.1,-999.0,74,-99.99,,,0.01,Acu-Link.com,2013-11-06 17:31:00,
2013-11-06 12:46:00,60.6,52.3,29.96,ENE,67,0.0,-999.0,74,-99.99,,,0.01,Acu-Link.com,2013-11-06 17:46:00,
2013-11-06 13:01:00,62.2,52.7,29.95,WSW,247,0.0,-999.0,71,-99.99,,,0.01,Acu-Link.com,2013-11-06 18:01:00,
2013-11-06 13:16:00,61.5,52.0,29.94,ENE,67,0.0,-999.0,71,-99.99,,,0.01,Acu-Link.com,2013-11-06 18:16:00,
2013-11-06 13:31:00,61.9,52.4,29.93,East,90,2.7,-999.0,71,-99.99,,,0.01,Acu-Link.com,2013-11-06 18:31:00,
2013-11-06 13:46:00,62.2,52.3,29.92,South,180,0.0,-999.0,70,-99.99,,,0.01,Acu-Link.com,2013-11-06 18:46:00,
2013-11-06 14:01:00,62.8,52.9,29.91,South,180,0.0,-999.0,70,-99.99,,,0.01,Acu-Link.com,2013-11-06 19:01:00,
2013-11-06 14:17:00,63.3,52.6,29.90,East,90,2.7,-999.0,68,-99.99,,,0.01,Acu-Link.com,2013-11-06 19:17:00,
2013-11-06 14:32:00,63.1,53.2,29.90,ESE,112,1.7,-999.0,70,-99.99,,,0.01,Acu-Link.com,2013-11-06 19:32:00,
2013-11-06 14:47:00,63.3,53.3,29.90,ESE,112,0.0,-999.0,70,-99.99,,,0.01,Acu-Link.com,2013-11-06 19:47:00,
2013-11-06 15:02:00,63.5,53.1,29.90,SSW,202,2.2,-999.0,69,-99.99,,,0.01,Acu-Link.com,2013-11-06 20:02:00,
2013-11-06 15:17:00,62.8,52.9,29.89,SSW,202,1.7,-999.0,70,-99.99,,,0.01,Acu-Link.com,2013-11-06 20:17:00,
2013-11-06 15:33:00,62.4,52.9,29.89,West,270,2.7,-999.0,71,-99.99,,,0.01,Acu-Link.com,2013-11-06 20:33:00,
2013-11-06 15:48:00,62.6,53.1,29.89,SSW,202,0.0,-999.0,71,-99.99,,,0.01,Acu-Link.com,2013-11-06 20:48:00,
2013-11-06 16:03:00,61.9,53.1,29.88,SW,225,1.7,-999.0,73,-99.99,,,0.01,Acu-Link.com,2013-11-06 21:03:00,
2013-11-06 16:18:00,61.3,52.6,29.88,SSW,202,2.2,-999.0,73,-99.99,,,0.01,Acu-Link.com,2013-11-06 21:18:00,
2013-11-06 16:34:00,61.3,52.9,29.88,SE,135,0.0,-999.0,74,-99.99,,,0.01,Acu-Link.com,2013-11-06 21:34:00,
2013-11-06 16:49:00,61.2,52.8,29.88,ENE,67,0.0,-999.0,74,-99.99,,,0.01,Acu-Link.com,2013-11-06 21:49:00,
2013-11-06 17:04:00,60.4,52.8,29.88,ENE,67,0.0,-999.0,76,-99.99,,,0.01,Acu-Link.com,2013-11-06 22:04:00,
2013-11-06 17:19:00,59.4,52.5,29.88,East,90,0.0,-999.0,78,-99.99,,,0.01,Acu-Link.com,2013-11-06 22:19:00,
2013-11-06 17:34:00,58.6,52.4,29.88,NE,45,0.0,-999.0,80,-99.99,,,0.01,Acu-Link.com,2013-11-06 22:34:00,
2013-11-06 17:49:00,58.1,52.6,29.88,ESE,112,0.0,-999.0,82,-99.99,,,0.01,Acu-Link.com,2013-11-06 22:49:00,
2013-11-06 18:05:00,57.7,52.2,29.88,ESE,112,0.0,-999.0,82,-99.99,,,0.01,Acu-Link.com,2013-11-06 23:05:00,
2013-11-06 18:20:00,57.2,52.7,29.88,SSW,202,0.0,-999.0,85,-99.99,,,0.01,Acu-Link.com,2013-11-06 23:20:00,
2013-11-06 18:35:00,56.7,52.2,29.88,NNE,22,0.0,-999.0,85,-99.99,,,0.01,Acu-Link.com,2013-11-06 23:35:00,
2013-11-06 18:50:00,56.5,52.4,29.87,North,0,0.0,-999.0,86,-99.99,,,0.01,Acu-Link.com,2013-11-06 23:50:00,
2013-11-06 19:05:00,55.9,52.1,29.87,West,270,0.0,-999.0,87,-99.99,,,0.01,Acu-Link.com,2013-11-07 00:05:00,
2013-11-06 19:21:00,55.4,51.9,29.87,West,270,0.0,-999.0,88,-99.99,,,0.01,Acu-Link.com,2013-11-07 00:21:00,
2013-11-06 19:36:00,54.9,52.0,29.86,West,270,0.0,-999.0,90,-99.99,,,0.01,Acu-Link.com,2013-11-07 00:36:00,
2013-11-06 19:51:00,54.1,51.5,29.86,NW,315,0.0,-999.0,91,-99.99,,,0.01,Acu-Link.com,2013-11-07 00:51:00,
2013-11-06 20:06:00,53.8,51.2,29.86,West,270,0.0,-999.0,91,-99.99,,,0.01,Acu-Link.com,2013-11-07 01:06:00,
2013-11-06 20:22:00,53.2,51.2,29.85,South,180,0.0,-999.0,93,-99.99,,,0.01,Acu-Link.com,2013-11-07 01:22:00,
2013-11-06 20:37:00,52.9,50.9,29.85,South,180,0.0,-999.0,93,-99.99,,,0.01,Acu-Link.com,2013-11-07 01:37:00,
2013-11-06 20:52:00,52.7,51.6,29.85,SSW,202,0.0,-999.0,96,-99.99,,,0.01,Acu-Link.com,2013-11-07 01:52:00,
2013-11-06 21:07:00,52.3,51.2,29.84,WNW,292,0.0,-999.0,96,-99.99,,,0.01,Acu-Link.com,2013-11-07 02:07:00,
2013-11-06 21:22:00,52.2,51.4,29.84,WNW,292,0.0,-999.0,97,-99.99,,,0.01,Acu-Link.com,2013-11-07 02:22:00,
2013-11-06 21:37:00,52.0,51.5,29.84,WNW,292,0.0,-999.0,98,-99.99,,,0.01,Acu-Link.com,2013-11-07 02:37:00,
2013-11-06 21:53:00,51.8,51.3,29.84,WSW,247,0.0,-999.0,98,-99.99,,,0.01,Acu-Link.com,2013-11-07 02:53:00,
2013-11-06 22:08:00,52.5,52.0,29.84,WSW,247,0.0,-999.0,98,-99.99,,,0.01,Acu-Link.com,2013-11-07 03:08:00,
2013-11-06 22:23:00,53.4,52.3,29.83,SSW,202,0.0,-999.0,96,-99.99,,,0.01,Acu-Link.com,2013-11-07 03:23:00,
2013-11-06 22:38:00,54.1,52.7,29.83,West,270,0.0,-999.0,95,-99.99,,,0.01,Acu-Link.com,2013-11-07 03:38:00,
2013-11-06 22:53:00,54.1,52.7,29.82,West,270,0.0,-999.0,95,-99.99,,,0.01,Acu-Link.com,2013-11-07 03:53:00,
2013-11-06 23:09:00,54.3,52.9,29.82,West,270,0.0,-999.0,95,-99.99,,,0.01,Acu-Link.com,2013-11-07 04:09:00,
2013-11-06 23:24:00,54.3,52.6,29.82,West,270,0.0,-999.0,94,-99.99,,,0.01,Acu-Link.com,2013-11-07 04:24:00,
2013-11-06 23:39:00,54.3,52.6,29.81,SSE,157,0.0,-999.0,94,-99.99,,,0.01,Acu-Link.com,2013-11-07 04:39:00,
2013-11-06 23:54:00,54.3,52.6,29.81,WNW,292,0.0,-999.0,94,-99.99,,,0.01,Acu-Link.com,2013-11-07 04:54:00,